Back to catalog

LEMUR 2 LLOYD

AliveWeatherSSO
NORAD 60577·PAYLOAD·🇺🇸 United States

Launched Aug 16, 2024 from Vandenberg Space Force Base

Loading…

Next Passes (next 24 hours)

TLE

FreshSource: Space-Track

Epoch: Sep 14, 2026, 04:06 UTC

1 60577U 24149DP  26257.17111927  .00007564  00000-0  46048-3 0  9993
2 60577  97.6699 338.4197 0003491 184.2880 175.8320 15.10695454113827

Track LEMUR 2 LLOYD in real time with AllMySat

Download on the App Store